EW2270 Weather Reports


time (UTC)temp
C
wind
direction
speed
KPH
gust
KPH
rain 1hr
cm
rain 24hr
cm
rain mn
cm
humidity
%
barometer
mb
20260903111522 12 293 1.6 11.3 0.03 1.04 0.25 88 1009.6
20260903110020 12 304 4.8 8.0 0.03 1.04 0.25 87 1009.3
20260903104520 12 345 3.2 4.8 0.10 1.04 0.25 87 1009.2
20260903103019 11 131 0.0 3.2 0.15 1.04 0.25 90 1009.3
20260903101517 11 137 0.0 6.4 0.15 1.02 0.23 89 1009.2
20260903100016 12 103 6.4 9.7 0.20 1.02 0.23 88 1009.1
20260903094514 12 146 0.0 1.6 0.13 0.94 0.15 87 1009.2
20260903093015 12 146 0.0 1.6 0.08 0.89 0.10 87 1009.3
20260903091510 12 108 0.0 0.0 0.08 0.86 0.08 88 1009.0
20260903090024 12 108 0.0 0.0 0.03 0.81 0.03 88 1008.9
20260903084505 12 108 0.0 0.0 0.03 0.81 0.03 87 1008.6
20260903083005 12 108 0.0 0.0 0.03 0.81 0.03 86 1008.5
20260903081503 12 108 0.0 4.8 0.00 0.79 0.00 84 1008.3
20260903080112 12 121 3.2 4.8 0.00 0.79 0.00 86 1008.1
20260903074620 12 103 0.0 6.4 0.00 0.79 0.00 84 1008.0
20260903073108 12 309 6.4 9.7 0.03 0.79 0.00 84 1007.9
20260903071607 13 146 0.0 6.4 0.03 0.79 0.00 80 1007.7
20260903070051 12 133 3.2 14.5 0.20 0.79 0.00 81 1007.9
20260903064550 12 131 8.0 32.2 0.33 0.79 0.79 82 1007.8
20260903063049 12 131 4.8 14.5 0.38 0.76 0.76 85 1007.8
20260903061554 12 131 3.2 9.7 0.41 0.71 0.71 85 1008.2
20260903060047 12 197 3.2 9.7 0.28 0.56 0.56 82 1008.5
20260903054550 13 194 8.0 22.5 0.18 0.43 0.43 83 1008.4
20260903053049 13 243 22.5 32.2 0.18 0.38 0.38 84 1008.4
20260903051544 13 144 6.4 14.5 0.18 0.33 0.33 82 1007.6
20260903050043 13 139 4.8 12.9 0.18 0.28 0.28 82 1007.6
20260903044542 13 131 3.2 9.7 0.18 0.25 0.25 82 1007.8
20260903043041 13 113 1.6 8.0 0.15 0.20 0.20 84 1007.9
20260903041641 13 127 0.0 4.8 0.15 0.15 0.15 84 1007.9
20260903040039 13 140 1.6 9.7 0.10 0.10 0.10 81 1007.9
20260903034546 14 141 4.8 8.0 0.08 0.08 0.08 80 1007.9
20260903033041 15 170 6.4 11.3 0.03 0.03 0.03 76 1007.9
20260903031539 15 158 4.8 8.0 0.00 0.00 0.00 74 1007.7
20260903030034 15 208 4.8 11.3 0.00 0.00 0.00 72 1007.6
20260903024533 16 210 6.4 14.5 0.00 0.00 0.00 66 1007.3
20260903023036 16 188 11.3 20.9 0.00 0.00 0.00 61 1007.2
20260903021531 17 196 11.3 22.5 0.00 0.00 0.00 58 1007.2
20260903020031 17 202 14.5 25.7 0.00 0.00 0.00 56 1007.2
20260903014544 18 193 20.9 29.0 0.00 0.00 0.00 52 1007.1
20260903013034 17 198 19.3 29.0 0.00 0.00 0.00 55 1007.1
20260903011528 17 195 24.1 35.4 0.00 0.00 0.00 55 1007.1
20260903010028 18 202 22.5 33.8 0.00 0.00 0.00 52 1006.9
20260903004540 18 194 20.9 32.2 0.00 0.00 0.00 52 1006.9
20260903003031 18 233 16.1 30.6 0.00 0.00 0.00 53 1006.8
20260903001526 18 196 17.7 32.2 0.00 0.00 0.00 53 1006.5
20260903000024 19 243 16.1 29.0 0.00 0.00 0.00 55 1006.4
20260902234523 20 250 17.7 43.5 0.00 0.00 0.00 44 1006.2
20260902233024 21 248 20.9 33.8 0.00 0.00 0.00 42 1006.2
20260902231521 21 259 24.1 41.8 0.00 0.00 0.00 39 1006.0
20260902230021 21 241 24.1 49.9 0.00 0.00 0.00 39 1005.5
20260902224620 22 263 35.4 48.3 0.00 0.00 0.00 39 1005.2
20260902223020 22 251 35.4 49.9 0.00 0.00 0.00 35 1005.1
20260902221523 23 230 25.7 40.2 0.00 0.00 0.00 30 1005.1
20260902220018 24 221 22.5 35.4 0.00 0.00 0.00 28 1004.4
20260902214525 24 231 14.5 32.2 0.00 0.00 0.00 28 1004.2
20260902213024 25 110 9.7 20.9 0.00 0.00 0.00 29 1003.9
20260902211509 23 100 6.4 14.5 0.00 0.00 0.00 35 1004.1
20260902210015 23 146 6.4 19.3 0.00 0.00 0.00 35 1004.3
20260902204504 23 6 6.4 14.5 0.00 0.00 0.00 37 1004.3
20260902203003 23 27 4.8 17.7 0.00 0.00 0.00 38 1004.5
20260902201603 22 49 14.5 20.9 0.00 0.00 0.00 39 1004.7
20260902200059 22 44 6.4 14.5 0.00 0.00 0.00 40 1005.0
20260902194555 21 23 4.8 9.7 0.00 0.00 0.00 41 1005.4
20260902193056 21 356 4.8 11.3 0.00 0.00 0.00 41 1005.5
20260902191555 21 340 4.8 8.0 0.00 0.00 0.00 41 1005.7
20260902190051 21 318 0.0 12.9 0.00 0.00 0.00 42 1005.9
20260902184557 22 43 0.0 6.4 0.00 0.00 0.00 42 1006.1
20260902183046 21 111 0.0 9.7 0.00 0.00 0.00 42 1006.3
20260902181547 21 284 4.8 11.3 0.00 0.00 0.00 43 1006.5
20260902180040 20 291 1.6 9.7 0.00 0.00 0.00 44 1006.6
20260902174538 20 279 0.0 8.0 0.00 0.00 0.00 45 1006.9
20260902173036 20 187 3.2 8.0 0.00 0.00 0.00 46 1007.0
20260902171534 20 357 4.8 8.0 0.00 0.00 0.00 47 1007.2
20260902170031 18 30 4.8 9.7 0.00 0.00 0.00 49 1007.3
20260902164530 18 248 8.0 11.3 0.00 0.00 0.00 49 1007.3
20260902163028 18 222 3.2 9.7 0.00 0.00 0.00 51 1007.4
20260902161526 18 302 1.6 11.3 0.00 0.00 0.00 51 1007.4
20260902160024 18 229 4.8 9.7 0.00 0.00 0.00 51 1007.5
20260902154526 17 269 9.7 16.1 0.00 0.00 0.00 52 1007.8
20260902153023 17 210 4.8 11.3 0.00 0.00 0.00 54 1008.0
20260902151518 15 156 1.6 3.2 0.00 0.00 0.00 62 1008.2
20260902150018 13 157 0.0 0.0 0.00 0.00 0.00 66 1008.3
20260902144520 12 157 0.0 3.2 0.00 0.00 0.00 67 1008.5
20260902143017 12 186 6.4 9.7 0.00 0.00 0.00 69 1008.5
20260902141516 12 148 3.2 6.4 0.00 0.00 0.00 68 1008.4
20260902140013 12 141 3.2 4.8 0.00 0.00 0.00 68 1008.5
20260902134513 12 193 0.0 6.4 0.00 0.00 0.00 68 1008.5
20260902133012 13 186 3.2 4.8 0.00 0.00 0.00 66 1008.5
20260902131511 13 169 4.8 8.0 0.00 0.00 0.00 67 1008.5
20260902130010 12 165 4.8 6.4 0.00 0.00 0.00 69 1008.2
20260902124509 12 233 1.6 4.8 0.00 0.00 0.00 68 1008.2
20260902123009 12 238 1.6 8.0 0.00 0.00 0.00 68 1008.2
20260902121506 12 203 6.4 9.7 0.00 0.00 0.00 69 1008.1
20260902120007 13 140 3.2 4.8 0.00 0.00 0.00 67 1007.7
20260902114501 13 158 0.0 3.2 0.00 0.00 0.00 66 1007.6
20260902113004 14 158 0.0 4.8 0.00 0.00 0.00 65 1007.7